Location: Unspecified
(0.0000°N, 0.0000°E)
Time: 23:04:34
(UTC+00:00)

Envisat - Pass Details

Date: 18 April 2018
Orbit: 764 x 766 km, 98.2° (Epoch: 24 April)

Event Time Altitude Azimuth Distance (km) Brightness Sun altitude
Exits shadow 20:51:38 15° 286° (WNW) 1,954 5.6 -42.1°
Drops below altitude 10° 20:53:07 10° 301° (WNW) 2,295 6.0 -42.5°
Sets 20:56:04 0° 319° (NW) 3,217 6.8 -43.2°
